YAOGAN-29

Last updated on Sat Apr 26 2025 00:02:11 GMT+0000 (Coordinated Universal Time)

1 41038U 15069A 25115.54904895 .00000920 00000+0 12114-3 0 9997 2 41038 98.0383 137.7131 0000792 17.7202 342.4039 14.82577676508730
UTC large
Height (km)
Speed (km/s)
/
Latitude / Longitude
Inclination (degrees)
Orbital Period (minutes)
Azimuth
Elevation
Range (km)
Doppler Factor

Next 0 passes for location: London (51.5072 / 0.1276)

Sorry there are no passes over London.